Temperature
16 16 16 16 16 17 18 20 21 21 21 21 20 20 19 18 17 15 13 13 13 13 14 14 14 14 14 14 14 14 14 14 14 14 14 14 14 14 14 14 14 14 14 14 14 14 14 15 15
15 15 16 17 16 17 18 20 20 20 20 19 19 19 18 16 14 13 13 13 13 13 13 13 13 13 13 13 13 13 13 13 13 13 13 13 14 14 14 14 14 14 14 14 14 14 14 14 14
15 15 16 17 17 17 19 20 19 19 19 19 18 17 17 15 13 13 13 13 12 13 13 13 13 13 13 13 13 13 13 13 13 13 13 13 13 13 13 13 13 14 14 14 14 14 14 14 14
15 15 17 16 17 18 19 19 19 19 18 18 18 16 14 13 13 13 13 12 12 12 12 13 13 13 13 12 12 13 13 13 13 13 13 13 13 13 13 13 13 13 13 13 13 14 14 14 14
15 16 16 16 17 18 19 19 19 19 18 18 18 16 13 12 12 12 12 12 12 12 12 12 12 12 12 12 12 12 12 12 12 12 12 12 12 13 13 13 13 13 13 13 13 13 13 13 13
15 16 15 15 17 18 19 19 19 18 18 18 17 15 12 11 12 12 12 12 12 12 12 12 12 12 12 12 12 12 12 12 12 12 12 12 12 12 12 12 12 12 12 13 13 13 13 13 13
15 15 15 16 17 17 18 18 18 17 17 16 16 15 11 11 12 11 11 11 11 11 12 12 12 12 11 11 11 11 11 11 11 11 11 11 11 11 12 12 12 12 12 12 12 13 13 12 13
14 15 15 16 16 17 17 17 16 16 15 15 15 14 11 11 11 11 11 11 11 11 11 11 11 11 11 11 11 11 11 11 11 11 11 11 11 11 11 11 11 11 11 12 12 12 12 12 12
14 13 14 16 16 16 16 16 15 14 14 13 12 12 11 11 11 11 10 10 10 11 11 11 11 11 11 10 10 11 11 10 11 11 11 11 11 11 11 11 11 11 11 11 11 11 12 12 11
14 13 14 15 15 15 15 15 14 13 13 12 11 11 10 10 10 10 10 10 10 10 10 10 10 10 10 10 10 10 10 10 10 10 10 10 10 10 10 10 10 10 10 11 11 11 11 11 11
14 13 14 14 14 14 14 13 13 13 12 12 11 10 10 10 10 10 10 10 9 9 9 10 10 10 10 10 10 9 10 9 9 9 9 9 9 9 9 9 10 10 10 10 10 10 10 10 10
13 13 13 13 13 13 13 12 12 11 11 11 10 10 10 9 9 9 9 9 9 9 9 9 9 9 9 9 9 9 9 9 9 9 9 9 9 9 9 9 9 9 9 9 10 9 9 9 9
12 12 12 11 11 11 11 11 11 10 10 10 10 9 9 9 8 8 8 8 8 8 8 9 9 8 8 9 8 8 8 8 8 8 8 8 8 8 8 8 8 9 9 9 9 9 9 9 9
12 11 11 11 11 11 10 10 10 9 9 9 9 8 8 8 7 7 7 8 8 8 8 8 8 8 8 8 8 8 8 8 8 8 8 8 8 8 8 8 8 8 8 8 8 8 8 8 8
11 10 10 11 11 10 10 9 9 9 9 8 8 8 7 6 6 6 6 7 7 7 7 7 8 7 7 7 7 7 7 7 7 7 7 7 7 7 7 7 7 8 8 8 7 7 7 8 8
11 10 10 11 11 10 9 9 9 9 9 8 7 7 6 5 5 5 6 6 6 6 7 7 7 7 7 7 7 7 7 7 7 7 7 7 7 7 7 7 7 7 7 7 7 7 7 7 7
10 10 10 10 10 10 9 9 8 9 8 8 7 6 5 5 5 5 5 5 6 6 6 6 6 6 6 6 6 6 6 6 6 6 6 6 6 6 6 6 6 6 7 7 6 6 6 6 6
9 10 11 10 10 9 8 8 8 8 8 7 6 6 5 4 4 4 4 5 5 5 5 6 6 6 6 6 6 6 6 6 6 6 6 6 6 6 6 6 6 6 6 6 6 6 6 6 6
9 9 10 10 9 8 8 8 8 7 7 6 6 5 4 4 3 3 4 4 4 4 5 5 5 5 5 5 5 5 5 5 5 5 5 5 5 5 5 5 5 5 5 5 5 5 5 5 5
8 8 8 8 8 8 7 7 7 7 6 5 5 4 4 3 3 3 3 3 4 4 4 4 4 4 5 5 4 4 5 4 4 4 4 5 5 5 5 4 5 5 5 5 5 5 5 5 5
8 7 7 7 7 7 6 6 6 6 5 5 4 4 3 3 2 2 2 2 3 3 3 4 4 4 4 4 4 4 4 4 4 4 4 4 4 4 4 4 4 4 4 4 4 4 4 4 4
7 7 6 6 5 5 6 5 6 5 4 4 4 3 3 2 2 2 2 2 2 2 3 3 3 3 3 3 3 3 3 3 3 3 3 3 3 3 3 3 3 3 3 3 3 4 4 4 4
6 6 6 6 5 5 5 4 5 5 4 3 3 2 2 2 1 1 1 1 1 2 2 2 2 2 2 2 3 3 3 3 3 2 2 2 2 2 2 3 3 3 3 3 3 3 3 3 3
5 5 5 5 5 4 5 5 5 4 4 3 2 2 1 1 1 1 1 1 1 1 1 1 2 2 2 2 2 2 2 2 2 2 2 1 1 2 2 2 2 2 2 2 2 2 3 3 3
5 4 4 5 4 5 5 4 4 3 3 3 2 2 1 1 0 0 0 0 0 0 1 1 1 1 1 1 1 1 1 1 1 1 1 1 1 1 1 1 1 1 1 1 2 2 2 2 2
4 4 4 4 5 5 4 3 3 2 2 2 2 2 1 0 -0 -1 -1 -1 -0 -0 -0 0 0 -0 -0 -0 0 -0 -0 0 0 0 0 0 0 0 0 0 1 1 1 1 1 1 1 1 1
4 3 4 4 4 3 4 4 3 2 1 1 1 1 0 -0 -1 -1 -1 -1 -1 -1 -1 -1 -1 -1 -1 -1 -1 -1 -1 -1 -1 -1 -1 -1 -0 -0 -0 -0 -0 -0 -0 -0 0 0 0 1 1
3 3 2 3 3 4 4 4 3 2 1 -0 -1 -0 -1 -1 -1 -2 -2 -2 -2 -2 -2 -2 -2 -2 -2 -2 -2 -2 -2 -1 -1 -1 -1 -1 -1 -1 -1 -1 -1 -1 -1 -1 -1 -1 -0 -0 -0
2 2 2 2 3 3 3 3 3 2 0 -1 -1 -1 -1 -1 -2 -2 -2 -2 -2 -2 -2 -2 -2 -2 -2 -2 -2 -2 -2 -2 -2 -2 -2 -2 -2 -2 -1 -1 -1 -1 -1 -1 -1 -1 -1 -1 -1
1 2 1 1 2 2 2 2 1 0 -0 -0 -1 -1 -1 -2 -2 -3 -3 -3 -3 -3 -3 -3 -3 -3 -3 -3 -3 -3 -3 -3 -3 -2 -2 -2 -2 -2 -2 -2 -2 -2 -2 -2 -2 -2 -2 -1 -1
Wind_Speed
11 10 6 2 3 5 7 4 2 2 1 4 6 4 4 4 4 6 4 6 7 6 8 7 9 11 12 12 12 12 12 12 12 13 13 13 14 14 14 14 15 15 15 15 14 14 14 15 14
10 6 3 3 4 6 5 5 3 2 4 5 5 4 4 6 7 7 5 5 6 7 8 8 10 12 12 12 12 12 12 12 12 12 13 13 13 14 14 14 15 15 14 14 14 14 14 14 13
9 6 3 4 5 6 3 2 4 5 6 4 3 4 4 5 5 4 5 4 6 7 9 9 12 12 12 12 12 12 13 12 12 12 12 13 13 14 14 14 14 14 14 14 14 14 13 13 12
4 3 3 5 8 5 4 1 5 5 5 3 4 4 5 6 4 5 6 5 7 7 9 10 12 12 12 12 12 12 12 13 13 12 12 12 12 13 13 14 14 14 13 13 13 13 12 12 10
3 3 5 6 8 5 3 1 2 2 4 4 4 3 5 4 7 7 6 6 7 7 9 10 11 12 12 12 12 12 12 12 12 12 11 12 12 12 13 13 13 13 13 12 12 12 12 11 10
3 3 5 7 7 6 3 0 1 1 3 4 3 2 5 5 7 6 6 7 8 8 10 10 11 11 11 11 11 12 12 12 12 11 11 11 11 12 12 12 12 13 13 12 12 12 11 11 10
3 3 6 6 6 5 3 1 0 1 2 2 2 2 6 6 6 5 7 7 8 9 9 9 9 9 10 11 11 11 11 11 11 11 11 11 11 11 12 12 12 12 12 12 12 11 11 10 9
4 3 6 6 6 4 2 2 2 2 2 3 3 2 5 5 5 6 6 7 8 8 8 8 8 9 9 9 10 11 11 10 10 11 11 11 11 11 11 12 11 11 11 11 11 10 9 9 8
4 4 5 4 4 1 2 1 2 3 2 3 4 5 6 8 7 6 5 5 6 7 6 7 7 7 7 8 8 9 10 10 10 10 9 10 9 10 10 10 11 11 10 10 9 9 8 8 7
3 4 4 3 3 1 2 2 1 2 1 2 4 7 8 7 6 5 5 4 4 4 4 5 6 6 7 6 7 7 8 8 9 8 7 8 8 9 9 9 10 9 9 8 8 6 6 5 5
3 3 2 4 5 2 2 2 2 2 1 1 3 6 6 5 4 4 3 4 4 4 4 4 5 6 6 5 6 6 6 6 7 7 7 7 7 7 8 7 8 7 7 6 5 5 5 6 6
3 2 2 2 4 2 1 1 2 1 1 4 3 6 6 5 5 4 4 4 4 4 4 4 4 4 5 6 6 6 5 5 6 6 7 6 5 6 6 5 5 5 5 4 4 4 4 6 6
5 3 2 2 3 2 1 2 2 2 1 4 4 5 5 5 4 4 5 4 5 5 4 4 4 4 4 5 5 5 5 5 6 6 6 6 5 4 4 4 4 4 4 3 3 4 4 5 6
1 2 2 2 2 2 2 3 2 3 3 3 4 4 4 5 4 4 4 4 3 3 3 3 4 4 4 4 4 5 5 5 6 6 6 6 5 4 3 3 4 4 3 3 3 4 4 4 5
2 3 4 5 4 2 1 5 6 4 4 4 4 4 5 4 4 4 3 3 3 3 3 3 4 4 5 4 4 5 5 5 4 5 5 6 5 5 4 3 3 4 3 3 3 3 4 4 4
4 4 5 5 5 4 4 5 4 5 6 5 4 4 4 4 4 3 3 3 3 3 3 3 3 4 4 4 4 4 4 5 4 4 4 5 5 4 4 3 3 4 3 3 2 2 2 2 2
5 5 5 4 6 4 5 5 3 5 6 5 5 4 4 3 3 3 3 3 4 3 4 3 4 3 3 4 4 4 5 5 4 4 4 4 5 4 3 3 3 3 3 2 2 2 1 2 2
4 5 5 4 4 4 6 6 4 3 4 5 4 4 4 3 2 3 3 4 4 4 4 3 3 3 3 3 3 3 4 4 4 4 4 4 4 4 3 2 2 2 2 2 1 1 2 1 1
6 7 7 3 0 2 6 7 5 3 3 4 4 3 4 3 3 4 4 4 4 4 4 3 3 2 2 2 1 1 1 2 3 3 3 3 3 3 3 2 2 2 1 1 1 1 1 1 1
6 7 6 4 1 2 5 8 5 4 4 3 4 4 3 3 3 3 4 4 4 3 3 3 2 1 2 1 0 1 1 1 2 3 3 3 3 2 1 2 1 1 1 0 0 1 0 0 0
5 6 5 4 4 4 4 6 5 3 4 3 3 3 3 3 3 3 3 3 3 3 2 2 1 1 1 2 2 2 2 2 1 1 2 2 2 1 1 1 1 1 0 0 1 1 1 1 1
5 2 3 3 3 3 2 5 6 6 5 5 4 4 3 3 3 3 3 3 3 2 2 2 1 1 1 1 1 2 1 1 1 1 0 1 1 1 1 1 1 1 1 0 1 0 0 1 2
2 3 3 4 4 4 5 5 5 5 6 6 5 4 3 3 3 3 3 2 3 3 2 1 1 1 1 1 1 1 0 0 0 1 1 1 1 1 1 1 1 1 0 0 0 0 0 1 2
2 3 3 3 2 5 7 7 5 4 5 4 5 5 4 3 3 3 3 3 3 3 2 2 2 1 1 1 0 0 1 0 1 1 1 0 1 2 1 1 1 1 1 1 1 1 1 1 1
1 0 1 2 4 6 4 5 5 1 2 3 5 6 5 4 3 3 3 3 2 2 2 2 1 1 1 1 1 0 0 0 1 1 1 1 1 1 2 2 2 1 2 2 2 1 2 2 2
3 2 2 3 4 2 1 5 3 3 4 4 4 4 5 4 3 3 2 2 2 2 2 1 1 1 1 1 1 1 1 0 1 1 1 2 2 1 2 2 2 2 2 2 2 2 2 2 2
2 3 1 2 3 3 5 4 2 3 3 3 3 4 3 3 3 2 2 2 2 2 1 1 1 1 1 1 1 1 1 1 1 1 1 1 1 1 1 2 2 2 2 2 2 2 2 3 3
2 1 1 3 3 4 5 5 4 4 4 3 3 2 3 2 2 2 1 1 2 2 2 1 1 2 2 2 1 1 1 1 1 1 1 2 1 2 1 2 2 2 2 2 2 2 3 3 3
2 2 3 3 3 3 4 4 1 3 4 4 3 2 2 2 2 1 1 2 2 2 2 2 2 2 2 2 1 2 2 2 1 1 1 2 2 2 2 2 2 2 2 2 2 2 3 3 3
2 4 4 4 5 4 3 4 2 4 4 4 3 2 2 2 1 1 2 2 2 2 2 2 2 2 2 2 2 2 2 2 2 2 2 2 2 2 2 2 2 2 2 2 3 3 3 3 4
Wind_Direction
292 269 252 258 246 233 233 235 249 109 78 44 46 59 59 37 47 107 120 73 77 84 97 98 94 92 89 85 83 82 83 81 79 77 74 72 72 73 73 72 72 72 72 71 71 72 72 73 73
287 274 256 240 239 230 230 209 219 75 92 76 50 45 64 70 68 97 96 65 79 88 99 98 96 92 89 86 84 82 82 83 81 79 77 75 73 73 71 71 70 70 70 70 70 70 71 71 71
272 257 238 230 235 236 230 147 123 101 89 94 89 43 43 66 69 78 81 77 83 84 94 96 96 92 90 87 84 83 82 81 80 79 76 76 75 74 73 70 70 71 71 71 71 69 70 69 70
263 230 241 244 239 246 254 51 92 109 98 98 113 95 77 43 46 74 85 83 86 80 90 97 99 95 91 88 85 84 83 81 79 79 76 75 75 74 74 71 70 71 71 72 72 69 69 69 68
249 238 224 232 240 254 274 93 106 133 140 141 128 117 90 70 68 79 84 81 85 80 87 98 99 96 92 89 87 84 81 81 80 79 77 76 74 75 74 71 71 72 71 73 74 71 68 66 62
246 243 231 226 225 230 239 97 125 166 137 122 119 117 104 92 75 73 81 79 76 78 83 89 95 95 92 90 89 86 82 80 79 78 77 77 76 76 76 73 72 73 72 72 71 69 67 64 58
258 247 249 243 228 223 202 131 180 179 104 68 49 107 117 99 79 81 84 81 72 74 77 78 77 86 89 89 88 88 87 84 81 77 77 76 77 78 76 73 72 73 72 70 69 65 62 59 54
284 277 250 244 239 239 123 106 41 26 63 43 27 102 123 117 104 94 88 79 73 69 66 69 75 76 79 86 89 89 87 85 83 81 79 78 77 77 75 72 71 70 70 68 67 64 59 56 52
279 255 246 249 251 240 94 96 56 41 65 64 55 55 94 116 114 102 92 79 71 67 58 59 65 68 75 82 90 90 87 84 82 79 82 80 76 73 71 71 71 69 68 66 65 63 58 53 48
237 244 250 312 333 26 42 40 106 121 133 117 93 85 100 111 118 118 115 107 94 83 68 51 58 62 69 77 81 86 88 87 81 76 80 76 72 73 72 71 74 72 70 67 63 60 54 45 43
230 250 276 324 2 25 19 9 354 199 224 174 144 130 119 119 120 119 114 108 106 105 87 63 53 58 63 69 76 76 88 89 85 79 73 77 79 77 73 67 64 65 65 57 53 50 42 41 41
245 276 290 318 356 14 1 319 316 320 348 53 81 126 133 138 136 125 105 82 78 80 84 79 59 58 61 67 72 70 72 73 73 75 74 72 72 71 68 66 60 54 54 43 34 38 40 41 45
236 251 303 343 12 0 11 273 271 255 47 73 89 116 137 134 116 97 95 82 77 68 61 60 61 61 65 66 64 70 67 71 76 75 73 68 66 71 71 67 62 58 53 35 22 27 41 42 39
258 241 250 240 249 267 252 261 245 217 134 129 136 132 118 108 98 85 82 86 83 81 74 66 61 52 57 65 66 67 70 71 75 72 66 70 64 65 68 70 59 52 48 33 29 34 42 44 43
258 255 243 218 213 187 217 252 220 185 164 166 152 130 112 101 95 93 89 90 87 86 82 77 74 56 55 59 69 74 77 78 75 74 70 72 68 60 57 62 55 44 43 33 33 44 53 51 50
226 229 232 200 190 187 204 252 176 178 180 178 154 132 120 104 93 88 86 87 85 83 84 76 72 60 53 54 61 71 72 71 70 74 74 71 70 66 55 54 52 42 38 39 30 37 52 48 48
216 235 233 207 189 181 210 247 196 187 183 175 152 139 129 114 96 91 95 99 92 90 88 80 71 67 56 55 64 73 78 70 63 62 61 60 61 62 57 58 53 47 49 48 33 29 55 59 50
236 244 249 230 182 194 220 239 233 197 183 170 152 141 131 127 120 108 107 106 100 94 89 84 74 57 58 61 66 66 71 69 65 61 58 56 52 50 44 57 58 49 52 39 41 59 47 67 73
293 275 270 279 129 235 238 249 236 193 179 169 164 146 135 138 120 111 114 113 107 96 89 85 79 63 70 87 110 105 86 67 52 50 65 68 53 48 43 34 49 30 56 46 23 76 89 50 63
270 273 282 302 327 258 259 260 244 206 193 171 162 153 141 121 108 115 115 113 112 110 106 101 99 94 77 79 113 133 110 90 62 52 48 65 54 51 44 35 43 19 27 108 101 94 75 292 39
263 263 279 291 310 262 271 271 216 191 173 159 154 146 139 134 131 121 119 112 102 96 102 106 102 102 76 63 69 82 84 73 63 48 23 45 58 43 34 31 30 20 54 176 186 159 172 205 273
263 313 293 287 288 265 219 270 233 195 187 185 178 165 150 128 111 106 99 96 95 82 79 83 75 61 53 81 109 126 139 158 180 166 77 1 67 57 18 16 24 23 21 350 244 51 203 179 213
299 331 279 254 256 274 229 235 261 175 209 204 179 163 151 141 134 121 109 106 99 93 88 88 83 69 47 41 80 138 147 329 55 109 97 30 12 64 54 22 7 10 355 319 294 259 212 209 213
279 292 266 237 240 259 223 210 259 201 208 183 176 165 160 156 146 128 104 95 94 86 81 70 70 62 33 29 67 154 193 166 111 146 154 204 353 347 6 348 336 318 317 268 238 229 211 229 242
249 359 299 234 223 243 191 207 244 169 117 147 166 169 160 153 142 130 114 107 105 98 90 71 62 46 16 3 9 337 294 235 198 191 177 188 249 317 316 321 310 311 300 292 282 253 221 221 229
222 214 209 236 249 274 232 229 237 142 101 94 101 131 141 144 140 130 133 130 122 107 98 93 70 33 13 6 3 357 352 311 281 268 220 212 213 238 289 297 295 290 289 288 290 275 245 234 223
207 212 270 283 287 270 244 234 230 137 119 114 106 105 113 124 130 123 101 108 118 114 104 95 62 36 8 347 348 332 339 355 340 333 303 261 254 277 282 292 300 294 278 274 270 270 265 251 237
287 220 150 196 242 258 254 237 230 192 189 152 132 129 126 115 107 95 84 74 83 105 106 90 60 32 15 5 357 335 332 334 327 307 322 314 314 313 267 261 270 289 289 279 268 271 269 256 250
195 201 217 231 238 247 266 261 356 147 157 162 163 160 147 142 133 117 89 77 71 69 78 70 53 32 19 5 343 336 324 323 327 312 311 307 317 304 283 261 251 252 265 270 264 262 258 251 254
223 210 188 201 241 225 251 267 10 90 110 126 133 129 124 130 126 97 80 74 73 64 57 52 27 14 1 351 343 331 323 326 328 319 312 317 310 313 297 276 264 259 255 249 243 251 256 249 249
Height
1499 1501 1503 1506 1507 1507 1503 1495 1489 1491 1493 1497 1498 1500 1504 1509 1513 1524 1524 1522 1522 1523 1525 1527 1528 1529 1531 1532 1533 1534 1535 1536 1537 1538 1539 1540 1540 1541 1542 1543 1543 1544 1545 1545 1546 1546 1547 1548 1548
1498 1501 1504 1505 1506 1509 1501 1492 1492 1493 1496 1498 1500 1503 1506 1512 1515 1519 1520 1521 1522 1524 1525 1527 1528 1530 1531 1532 1533 1534 1535 1536 1538 1538 1539 1540 1541 1542 1543 1544 1544 1545 1545 1546 1547 1547 1548 1549 1549
1499 1501 1504 1502 1502 1502 1497 1490 1491 1494 1497 1500 1503 1506 1509 1514 1517 1518 1520 1521 1523 1524 1525 1527 1528 1530 1531 1532 1533 1535 1536 1537 1538 1539 1540 1541 1542 1543 1543 1544 1545 1546 1546 1547 1548 1548 1549 1550 1551
1500 1502 1502 1502 1500 1495 1492 1491 1492 1495 1498 1501 1504 1508 1512 1516 1517 1518 1519 1521 1523 1524 1526 1527 1529 1530 1531 1533 1534 1535 1536 1537 1538 1539 1540 1541 1542 1543 1544 1544 1545 1546 1547 1548 1548 1549 1550 1551 1551
1500 1501 1501 1501 1498 1493 1491 1491 1493 1495 1499 1502 1504 1508 1513 1516 1516 1518 1519 1521 1523 1524 1526 1527 1529 1530 1531 1533 1534 1535 1536 1537 1538 1539 1540 1541 1542 1543 1544 1545 1545 1546 1547 1548 1549 1549 1550 1551 1552
1501 1498 1501 1501 1496 1492 1492 1493 1494 1496 1499 1502 1505 1509 1514 1516 1516 1518 1519 1521 1523 1524 1525 1527 1529 1530 1531 1533 1534 1535 1536 1537 1538 1539 1540 1541 1542 1543 1544 1545 1545 1546 1547 1548 1549 1549 1550 1551 1552
1500 1498 1497 1494 1494 1492 1492 1494 1496 1497 1500 1503 1505 1509 1513 1515 1516 1518 1519 1521 1522 1524 1525 1527 1528 1530 1531 1533 1534 1535 1536 1537 1538 1539 1540 1541 1542 1542 1543 1544 1545 1546 1547 1548 1548 1549 1550 1551 1552
1498 1497 1494 1493 1493 1493 1492 1495 1497 1499 1502 1504 1505 1509 1513 1514 1515 1517 1519 1520 1522 1523 1525 1526 1527 1529 1530 1532 1533 1534 1535 1536 1537 1538 1539 1540 1541 1542 1543 1544 1545 1546 1546 1547 1548 1549 1550 1551 1552
1498 1500 1496 1493 1492 1493 1493 1496 1499 1501 1502 1504 1506 1508 1511 1513 1514 1516 1518 1519 1521 1523 1524 1525 1527 1528 1530 1531 1532 1533 1535 1536 1537 1538 1539 1540 1540 1541 1542 1543 1544 1545 1546 1547 1547 1548 1549 1550 1551
1497 1499 1495 1493 1492 1493 1495 1497 1500 1502 1503 1506 1508 1509 1510 1512 1514 1515 1517 1518 1519 1521 1523 1525 1526 1527 1528 1530 1531 1533 1534 1535 1536 1537 1538 1538 1539 1540 1541 1542 1543 1544 1545 1546 1547 1547 1548 1549 1550
1495 1496 1495 1495 1494 1495 1497 1499 1501 1502 1504 1506 1507 1508 1510 1511 1513 1514 1516 1517 1518 1520 1521 1523 1525 1526 1527 1529 1530 1532 1533 1534 1535 1536 1537 1537 1538 1539 1540 1541 1541 1542 1543 1544 1545 1546 1547 1548 1549
1495 1495 1495 1496 1496 1497 1498 1500 1502 1503 1505 1505 1506 1507 1509 1510 1512 1513 1515 1516 1517 1519 1520 1522 1523 1525 1526 1528 1529 1530 1532 1533 1534 1535 1535 1536 1537 1538 1539 1540 1540 1541 1542 1543 1544 1545 1546 1547 1548
1494 1495 1496 1497 1497 1498 1499 1501 1502 1503 1504 1504 1506 1507 1508 1509 1511 1512 1514 1515 1516 1517 1519 1520 1522 1523 1525 1526 1527 1529 1530 1531 1532 1533 1534 1535 1536 1536 1537 1538 1539 1539 1541 1541 1542 1543 1544 1545 1546
1494 1495 1496 1497 1497 1498 1499 1500 1502 1502 1503 1504 1505 1506 1507 1508 1509 1511 1512 1513 1514 1516 1518 1519 1520 1521 1523 1524 1526 1527 1528 1529 1530 1532 1533 1534 1534 1535 1536 1537 1537 1538 1539 1540 1541 1542 1542 1543 1544
1495 1496 1496 1495 1496 1498 1499 1500 1499 1500 1502 1503 1504 1505 1506 1507 1508 1509 1510 1511 1513 1514 1516 1517 1518 1520 1521 1522 1524 1525 1526 1527 1528 1530 1531 1532 1533 1533 1534 1535 1536 1537 1537 1538 1539 1540 1541 1542 1542
1494 1495 1496 1493 1494 1496 1501 1499 1498 1498 1499 1501 1502 1504 1505 1506 1507 1507 1509 1510 1511 1512 1513 1515 1516 1518 1519 1520 1521 1523 1524 1525 1526 1528 1529 1530 1531 1531 1532 1533 1534 1535 1536 1537 1537 1538 1539 1540 1540
1494 1495 1492 1492 1492 1493 1497 1497 1497 1496 1497 1499 1501 1502 1503 1505 1505 1506 1507 1508 1509 1510 1511 1513 1514 1516 1517 1518 1519 1520 1521 1523 1524 1526 1527 1528 1529 1529 1530 1531 1531 1532 1533 1534 1535 1536 1537 1537 1538
1494 1492 1488 1490 1490 1492 1494 1495 1495 1494 1495 1497 1499 1500 1502 1503 1504 1505 1505 1506 1507 1508 1509 1511 1512 1513 1514 1516 1517 1518 1519 1520 1522 1523 1524 1525 1526 1527 1527 1528 1529 1530 1531 1532 1533 1534 1535 1535 1536
1492 1490 1489 1489 1490 1493 1493 1493 1493 1493 1494 1495 1497 1499 1500 1502 1503 1503 1504 1504 1505 1506 1507 1508 1509 1511 1512 1513 1514 1515 1516 1517 1519 1520 1522 1522 1523 1524 1525 1525 1526 1527 1528 1529 1530 1531 1532 1533 1533
1492 1492 1492 1492 1491 1492 1493 1491 1490 1490 1491 1493 1495 1497 1499 1500 1501 1501 1502 1502 1503 1504 1505 1506 1507 1508 1509 1510 1512 1513 1513 1514 1516 1517 1518 1519 1520 1521 1522 1523 1523 1524 1525 1526 1527 1528 1529 1530 1531
1492 1494 1494 1495 1494 1492 1494 1491 1488 1489 1490 1492 1494 1495 1497 1498 1499 1500 1500 1500 1501 1502 1502 1503 1505 1506 1507 1508 1509 1510 1511 1512 1514 1514 1515 1516 1517 1518 1519 1520 1520 1521 1522 1523 1524 1525 1525 1526 1527
1493 1494 1495 1496 1499 1498 1495 1500 1486 1487 1489 1490 1492 1493 1495 1497 1498 1498 1498 1499 1499 1500 1501 1502 1502 1503 1504 1505 1506 1507 1507 1508 1509 1511 1512 1512 1513 1514 1515 1516 1517 1518 1518 1519 1520 1521 1522 1523 1524
1496 1495 1495 1496 1498 1500 1496 1500 1488 1485 1488 1488 1490 1491 1493 1495 1496 1496 1497 1497 1498 1498 1499 1500 1500 1501 1502 1502 1503 1504 1504 1505 1506 1507 1509 1509 1510 1511 1512 1513 1514 1514 1515 1516 1516 1517 1518 1519 1520
1496 1496 1495 1496 1499 1502 1493 1496 1487 1485 1483 1484 1487 1489 1491 1493 1494 1494 1495 1495 1496 1496 1496 1497 1497 1498 1499 1499 1500 1501 1501 1502 1503 1503 1504 1505 1506 1507 1508 1509 1510 1511 1511 1512 1513 1513 1514 1515 1516
1497 1500 1501 1499 1499 1493 1488 1491 1488 1483 1481 1482 1484 1487 1489 1490 1491 1492 1493 1493 1493 1493 1494 1494 1495 1495 1496 1496 1497 1498 1498 1499 1499 1500 1500 1501 1502 1503 1504 1505 1506 1507 1507 1508 1509 1509 1510 1510 1511
1499 1498 1501 1501 1493 1488 1491 1490 1485 1482 1481 1482 1484 1485 1487 1489 1490 1491 1491 1491 1491 1491 1491 1492 1492 1493 1493 1493 1494 1495 1495 1496 1496 1497 1497 1498 1499 1500 1501 1501 1501 1502 1503 1504 1505 1505 1505 1506 1507
1497 1499 1498 1500 1496 1499 1490 1484 1483 1482 1483 1483 1484 1485 1486 1488 1489 1489 1489 1489 1489 1489 1489 1490 1490 1490 1490 1491 1491 1492 1492 1492 1493 1493 1494 1495 1496 1496 1497 1497 1497 1498 1498 1499 1500 1500 1501 1502 1502
1498 1497 1502 1501 1501 1494 1485 1481 1481 1482 1482 1484 1484 1485 1486 1487 1487 1488 1488 1488 1488 1487 1487 1487 1487 1487 1488 1488 1488 1489 1489 1489 1490 1490 1490 1491 1492 1492 1493 1493 1494 1494 1494 1495 1495 1496 1496 1497 1497
1500 1500 1499 1498 1494 1494 1490 1485 1478 1478 1480 1482 1483 1484 1485 1486 1486 1486 1486 1486 1486 1486 1486 1485 1485 1485 1485 1485 1486 1486 1486 1487 1487 1487 1487 1488 1488 1489 1489 1490 1490 1489 1490 1490 1491 1491 1492 1492 1493
1496 1496 1499 1502 1497 1493 1494 1490 1481 1479 1479 1480 1481 1483 1484 1484 1485 1485 1485 1485 1484 1484 1484 1484 1483 1483 1483 1483 1483 1483 1483 1483 1483 1483 1484 1484 1485 1485 1485 1485 1485 1486 1486 1486 1486 1487 1487 1487 1488